AQI (34)

Current Conditions for Foresthill, CA. Sunny, Dry   
Visibility: 10 miles
Space WX Alerts: WATCH:  Geomagnetic Storm Category G1 Predicted ( Latest Alert ) - Issue Time: 2018 May 14 1928 UTC

  Summary / Temperature 

Current Temperature
65.9°F
18.8°C
(24/hr Ago)
71.2°F
(Apparent temp)
65.5°F
Comfortable
Wind Chill Graphs
65.9°F 

68.3°F/ 20.2°C
 --- Virtual Temp: 68.6°F ---

 Temp Rate:

 24/hr Difference:

 Avg Running Temp:

 Todays High:

 Todays Low:

 Y-days High:

 Y-days Low:

 Todays WChill:

 Y-days WChill:

 Evapotranspiration:

+0.9°F/hr 

-5.3°F

65.0°F

66.5°F 1:23pm

48.0°F 6:27am

71.9°F 2:18pm

55.3°F 11:56pm

42.7°F 6:44am

52.4°F 6:10am

0.100 in

115' Above Ground

 Temperature:

 6'AGL VRS 115'AGL:

 Avg Running Temp:

 Humidity:

 Todays High:

 Todays Low:

 Y-days High:

 Y-days Low:

65.0°F 

-0.9°F

63.7°F

59% 

65.0°F 2:27pm

47.0°F 5:46am

71.0°F 4:06pm

54.0°F 11:52pm

Temp & Humidity Graphs

  Wind 

Wind Speed

 7.0 mph

Gusting to

 9.0 mph

Wind from SW

236°  SW

Light breeze

 Avg speed:

 Wind Run:

 Peak Gust:

  1.0 mph 

26.0 miles

  13.0 mph 12:23am

  Almanac  

Moon age: 6 days,0 hours,33 minutes,36%

Waxing Crescent
36%
Illuminated
6 days in cycle

 Moonrise:

 Moonset:

 Sunrise:

 Sunset:

 Solar Noon:

11:05am

12:43am

5:45am

8:12pm

1:00pm

1min 39s more daylight tomorrow 

  Solar Radiation 

(Current Solar)
  751 W/m2 (73%)
(Todays High)
 1049 W/m2@12:11pm
Feels like: 76.3°F in the sun

Rain

 Rain Today:

 Rain Rate (/hr):

 Rain last hour:

 Rain Yesterday:

 This Month:

 Season Total:

3 Days Since Last Rain Day

0.00 in

0.000 in

0.00 in

0.00 in

0.14 in

42.12 in

Updated Time

Updated: 5/20/18  2:32pm

(Updated  sec ago)

Humidity & Barometer

 Humidity:

 Wetbulb:

 Dew Point:

 Barometer:

57% 

57.2°F 

50.2°F 

29.882 inHg 

 Baro Trend:  Steady 
Northern Calif
Preparedness
Fire 
Level 

    UV Index  

(Current UV)
5.9  Medium
(Todays High) @ 12:51pm
8.2   Very High

National Weather Service Forecast

This
Afternoon
This Afternoon: Sunny
Sunny
Tonight

Tonight: Partly Cloudy
Partly Cloudy
Monday

Monday: Chance Showers, Thunderstorms
Chance Showers, T-Storms
Monday
Night
Monday Night: Chance Showers, Thunderstorms
Chance Showers, T-Storms
Tuesday

Tuesday: Chance Showers, Thunderstorms
Chance Showers, T-Storms
Tuesday
Night
Tuesday Night: Chance Showers, Thunderstorms
Chance Showers, T-Storms
Hi 70 °F Lo 51 °F Hi 73 °F Lo 55 °F Hi 75 °F Lo 55 °F

Foresthill Probe 2 Stats  
Foresthill Probe 2: is located on Thomas Street
at 3000 feet. The main Foresthill Weather site
is located on Melody ln at the 2860 foot elevation

Light Air
70.4°F
21.3°C
Temp Rate:
+0.8°F
2.0 mph
Gusting to
3.0 mph
(Humidity)
46%
Wind from SSW
197°  SSW
Updated: 20/05/18 - 14:28:15
 Todays High: 71.3°F 12:32
 Todays Low: 50.1°F 06:27
 Rain Today: 0.00 in
 Season Total: 44.57 in

Foresthill Wx: Monthly,Yearly, Highs and Lows 

Foresthill  
This Weather Data is coming from the main Foresthill
Weather site located on Melody ln at the 2860 foot
elevation
Not Foresthill Probe 2
Weather Data
Month
  High
Month
  Low
Year
High
Year
Low
Temp 78.4°F
5/8/18
42.8°F
5/1/18
78.7°F
4/24/18
21.9°F
2/23/18
Humidity 96%
5/17/18
18%
5/11/18
100%
1/8/18
15%
2/10/18
Heat Index 77.9°F
5/8/18
48.1°F
5/1/18
78.0°F
4/24/18
27.1°F
2/20/18
Wind Chill 78.4°F
5/8/18
39.8°F
5/1/18
78.7°F
4/24/18
9.2°F
2/23/18
Wind Gust 31 mph
5/11/18
0 mph
5/1/18
43 mph
3/1/18
0 mph
1/1/18
Barometer 30.26 in
5/4/18
29.73 in
5/11/18
30.55 in
1/27/18
29.63 in
1/9/18
ET 0.21 in
5/11/18
0.00 in
5/1/18
0.21 in
5/11/18
0.00 in
1/1/18
Dew Point 56.7°F
5/5/18
23.3°F
5/11/18
56.7°F
5/5/18
7.6°F
2/11/18
Pacific Satellite US Radar Satellite Imagery Sacramento,CA.  (click to enlarge)
NWS Weather Forecast - Summary
Updated: Sunday, May 20, 2018 - 3:00am PDT
Current Interstate Highway Conditions for I-80 & US-50

[I 80: IN THE SAN FRANCISCO BAY AREA - SOLANO CO]
  A high wind advisory is in effect at the san francisco-oakland bay bridge /in san francisco/ (san francisco,alameda co) - travel is not recommended for campers, trailers or permit loads

[I 80: IN THE NORTHERN CALIFORNIA AREA & SIERRA NEVADA]
no traffic restrictions are reported for this area.

[US 50: IN THE SACRAMENTO VALLEY & THE LAKE TAHOE BASIN]
no traffic restrictions are reported for this area.
NWS Weather Forecast: This Afternoon and Tonight (Updated: Sun, 20-May-2018 2:03pm PDT)
This
Afternoon
This Afternoon: Sunny
Sunny

Hi 70 °F
NWS forecast: Sunny. High near 70, with temperatures falling to around 68 in the afternoon. Southwest wind around 8 mph.
Tonight

Tonight: Partly Cloudy
Partly Cloudy

Lo 51 °F
NWS forecast: Partly cloudy, with a low around 51. North northwest wind 2 to 7 mph.
YR.NO 10 Day Weather forecast
Last update: 05/20/2018 @ 00:34
Next update: 05/20/2018 @ 13:00
Provided by: 22
      Temperature Precipitation Pressure Wind  
Today
05/20/2018
12:00 18:00 63°F   29.90 inHg Light breeze from southwest 5 mph
  18:00 00:00 63°F   29.83 inHg Light breeze from southwest 5 mph
    (Click to enlarge)
meteogram

    Forecast for next 9 days

      Temperature Precip Pressure Wind  
Monday
05/21/2018
00:00 06:00 48°F   29.84 inHg Light air from east-northeast 2 mph
  06:00 12:00 45°F   29.80 inHg Light breeze from east-northeast 4 mph
  12:00 18:00 66°F   29.81 inHg Light air from west-southwest 3 mph
  18:00 00:00 66°F   29.75 inHg Light breeze from south-southwest 4 mph
      Temperature Precip Pressure Wind  
Tuesday
05/22/2018
00:00 06:00 52°F   29.79 inHg Light air from east 3 mph
  06:00 12:00 46°F   29.80 inHg Light breeze from east-northeast 4 mph
  12:00 18:00 68°F   29.82 inHg Light breeze from southwest 7 mph
  17:00 23:00 68°F   29.78 inHg Light breeze from south-southwest 6 mph
  23:00 05:00 55°F   29.86 inHg Light air from southeast 2 mph
      Temperature Precip Pressure Wind  
Wednesday
05/23/2018
05:00 11:00 50°F   29.84 inHg Light air from east 2 mph
  11:00 17:00 64°F   29.91 inHg Light breeze from southwest 5 mph
  17:00 23:00 68°F   29.89 inHg Light breeze from southwest 6 mph
  23:00 05:00 54°F   29.97 inHg Light air from east 1 mph
      Temperature Precip Pressure Wind  
Thursday
05/24/2018
05:00 11:00 48°F   29.95 inHg Light air from east-northeast 3 mph
  11:00 17:00 72°F   29.97 inHg Light breeze from west-southwest 5 mph
  17:00 23:00 73°F   29.94 inHg Light breeze from southwest 5 mph
  23:00 05:00 54°F   30.04 inHg Light air from east 3 mph
      Temperature Precip Pressure Wind  
Friday
05/25/2018
05:00 11:00 48°F   30.06 inHg Light air from south-southeast 3 mph
  11:00 17:00 64°F   30.04 inHg Light breeze from west-southwest 5 mph
  17:00 23:00 66°F   29.99 inHg Light breeze from southwest 7 mph
  23:00 05:00 52°F   30.03 inHg Light air from southeast 2 mph
      Temperature Precip Pressure Wind  
Saturday
05/26/2018
05:00 11:00 45°F   29.98 inHg Light breeze from east-northeast 4 mph
  11:00 17:00 66°F   29.96 inHg Light breeze from southwest 6 mph
  17:00 23:00 68°F   29.88 inHg Light breeze from southwest 7 mph
  23:00 05:00 54°F 0.03 in 29.94 inHg Light breeze from south-southeast 4 mph
      Temperature Precip Pressure Wind  
Sunday
05/27/2018
05:00 11:00 46°F 0.05 in 29.98 inHg Light breeze from southeast 6 mph
  11:00 17:00 59°F   30.02 inHg Gentle breeze from south-southwest 9 mph
  17:00 23:00 61°F   30.01 inHg Light breeze from southwest 6 mph
  23:00 05:00 50°F   30.06 inHg Light air from east-southeast 3 mph
      Temperature Precip Pressure Wind  
Monday
05/28/2018
05:00 11:00 41°F   30.01 inHg Light breeze from east-northeast 4 mph
  11:00 17:00 64°F   29.98 inHg Light breeze from west 6 mph
  17:00 23:00 70°F   29.90 inHg Light breeze from west-northwest 6 mph
  23:00 05:00 54°F   29.91 inHg Light breeze from east-northeast 6 mph
      Temperature Precip Pressure Wind  
Tuesday
05/29/2018
05:00 11:00 55°F   29.86 inHg Gentle breeze from east-northeast 9 mph
  11:00 17:00 79°F   29.83 inHg Light breeze from east-northeast 4 mph

NOAA Local Storm Report
2 MILES NORTH-NORTHEAST OF FALL RIVER MILLS   ( More )
DATE
05/15/2018
TIME
2:45 PM
COUNTY
SHASTA
STATE
CA
GEOGRAPHIC
41.03N 121.42W
SOURCE
PUBLIC
HAIL ESTIMATED AT 0.50 INCH
heavy rain and large amounts of half inch hail fell on highway 299 in fall river mills.
How Close Are We To this Month's Temperature Record ?
Updated Sunday, May 20, 2018- 2:25:01 PM

Current Temperature: 65.9°F

May's High: Temperature Record 86.5°F - Set on Tue, May 23, 2017 - 1:25:00 PM
We are currently 20.6°F Less than this Month's record High

May's Low: Temperature Record 39.2°F - Set on Fri, May 25, 2012 - 6:42:00 AM
We are currently 26.7°F More than this Month's record Low

Weather History For Sunday, May 20, 2018


On this Day - In Weather History ...
Data courtesy of weatherforyou.com
powered by Cumulus v1.9.3 (1059)
Ambient Weather VWS v14.00
Top Contact Website Map Copyright © 2007 - 2018 Foresthillweather.com Never base important decisions on this or any weather information obtained from the Internet